Regional Weather Roundup
Issued by NWS

Home | Current Version | Previous Version | Graphics & Text | Print | Product List | Glossary Off
Versions: 1 2 3 4 5 6 7 8 9 10 11 12 13 14 15 16 17 18 19 20 21 22 23 24 25 26 27 28 29 30 31 32 33 34 35 36 37 38 39 40 41 42 43 44 45 46 47 48 49 50

000
ASUS43 KDMX 211907
RWRIA

WEATHER ROUNDUP FOR IOWA
NATIONAL WEATHER SERVICE DES MOINES IA
200 PM CDT SUN SEP 21 2014

NOTE: "FAIR" INDICATES FEW OR NO CLOUDS BELOW 12,000 FEET WITH NO
SIGNIFICANT WEATHER AND/OR OBSTRUCTIONS TO VISIBILITY.

* - THESE STATIONS ARE NOT NWS STATIONS...THUS NOT UNDER NWS
QUALITY CONTROL.  THEY ALSO DO NOT REPORT WEATHER SUCH
AS PRECIPITATION OR FOG.

IAZ001>003-012>014-020>022-031>034-043>046-212000-
   NORTHWEST IOWA

CITY           SKY/WX    TMP DP  RH WIND       PRES   REMARKS
CARROLL *      MOSUNNY   68  48  49 N14G20    30.18F
CHEROKEE *     MOSUNNY   66  48  52 NW14G20   30.21S
DENISON *      MOSUNNY   68  48  49 NW20G25   30.18F
LE MARS *      MOSUNNY   68  48  49 N10G18    30.23S
ORANGE CITY *  MOSUNNY   68  45  42 N9G21     30.22F
SHELDON *      MOSUNNY   68  46  45 N16       30.20F
SIOUX CITY     MOSUNNY   69  49  48 N15G21    30.23S
SPENCER        PTSUNNY   67  47  48 N16       30.20S
STORM LAKE *   SUNNY     68  52  56 NW13G20   30.20S
$$

IAZ055>058-069>071-079>083-090>094-212000-
   SOUTHWEST IOWA

CITY           SKY/WX    TMP DP  RH WIND       PRES   REMARKS
ATLANTIC *     MOSUNNY   68  48  49 N15G25    30.18F
AUDUBON *      MOSUNNY   70  45  40 NW13G21   30.19F
CLARINDA *     MOSUNNY   72  48  43 N14G24    30.20F
COUNCIL BLFS * MOSUNNY   70  50  49 NW13G21   30.20S
CRESTON *      MOSUNNY   68  46  45 N17G26    30.17F
HARLAN  *      MOSUNNY   70  48  46 N18G24    30.22F
LAMONI         MOSUNNY   69  49  48 N12G22    30.16S
RED OAK *      MOSUNNY   72  50  46 N14G20    30.19F
SHENANDOAH *   MOSUNNY   72  48  43 N14G21    30.20F
$$

IAZ047>049-059>061-072>074-084-212000-
   CENTRAL IOWA

CITY           SKY/WX    TMP DP  RH WIND       PRES   REMARKS
AMES           PTSUNNY   67  47  48 N16G25    30.14S
ANKENY *       PTSUNNY   68  48  49 NW17      30.13F
CHARITON *     MOSUNNY   68  48  49 N20G28    30.13F
DES MOINES     MOSUNNY   71  47  42 N14G24    30.14S
GRINNELL*      MOSUNNY   66  48  52 N12G22    30.13S
KNOXVILLE *    SUNNY     68  46  45 NW15G24   30.11F
MARSHALLTOWN   CLOUDY    63  49  60 NW16G25   30.13S
PELLA *        SUNNY     70  50  49 N12G23    30.13S
PERRY *          N/A     68  46  45 N13G20    30.16F
$$

IAZ004>006-015-016-023>025-035-036-212000-
   NORTH CENTRAL IOWA

CITY           SKY/WX    TMP DP  RH WIND       PRES   REMARKS
ALGONA *       CLOUDY    64  48  55 NW14G23   30.18S
CLARION *        N/A     64  46  52 NW15      30.16S
ESTHERVILLE    PTSUNNY   65  48  54 N15G23    30.18F
FORT DODGE *   CLOUDY    64  46  52 N12G18    30.18S
MASON CITY     PTSUNNY   63  48  58 N17G26    30.16S
FOREST CITY *  CLOUDY    61  48  63 NW15      30.16R
IOWA FALLS *   CLOUDY    64  48  55 NW16      30.16S
$$

IAZ007>011-017>019-026>030-037>042-050>054-066-212000-
   NORTHEAST IOWA

CITY           SKY/WX    TMP DP  RH WIND       PRES   REMARKS
CEDAR RAPIDS   CLOUDY    61  51  70 N17G23    30.09S
CHARLES CITY * CLOUDY    63  48  59 N13G21    30.13S
CLINTON *      CLOUDY    61  48  63 NW13      30.07S
DECORAH *      PTSUNNY   63  48  59 NW18G28   30.07S
DUBUQUE        CLOUDY    60  52  74 N14       30.05S
MONTICELLO *   CLOUDY    63  52  67 NW15      30.07S
OELWEIN *      PTSUNNY   64  50  59 NW16G26   30.10S
WATERLOO       PTSUNNY   63  49  60 NW15G24   30.11S
$$

IAZ064-065-067-068-078-212000-
   EAST CENTRAL IOWA

CITY           SKY/WX    TMP DP  RH WIND       PRES   REMARKS
DAVENPORT      CLOUDY    63  48  58 NW17G26   30.06R
IOWA CITY        N/A     61  51  70 NW16G22   30.10S
MT. PLEASANT * MOSUNNY   68  46  45 NW15G22   30.09R
MUSCATINE *    CLOUDY    64  50  59 N17       30.08S
QUAD CITIES    CLOUDY    65  51  60 NW13      30.04F
$$

IAZ062-063-075>077-085>089-095>099-212000-
   SOUTHEAST IOWA

CITY           SKY/WX    TMP DP  RH WIND       PRES   REMARKS
BURLINGTON     MOSUNNY   68  50  52 NW20G29   30.06S
FAIRFIELD *    PTSUNNY   68  48  49 N17G26    30.10S
FORT MADISON * PTSUNNY   72  48  43 N15G22    30.08S
KEOKUK *       MOSUNNY   70  50  49 NW13G26   30.07R
OSKALOOSA *    PTSUNNY   68  50  52 NW16G23   30.12R
CENTERVILLE *  SUNNY     70  48  46 NW15      30.14S
OTTUMWA        MOSUNNY   69  49  48 N20G29    30.10F
WASHINGTON *   CLOUDY    66  50  55 NW18      30.10R
$$

ABBREVIATIONS USED IN REMARKS
   TC - TEMPERATURES IN CELSIUS
  WCI - WIND CHILL INDEX
   HX - HEAT INDEX
  VSB - VISIBILITY
$$




USA.gov is the U.S. government's official web portal to all federal, state and local government web resources and services.